Time,TemperatureF,DewpointF,PressureIn,WindDirection,WindDirectionDegrees,WindSpeedMPH,WindSpeedGustMPH,Humidity,HourlyPrecipIn,Conditions,Clouds,dailyrainin,SoftwareType,DateUTC
2013-02-09 00:02:00,27.0,-99.9,-100.00,ESE,115,8.0,11.0,-999,0.00,,,-99.99,,2013-02-09 06:02:00,
2013-02-09 00:11:00,27.0,-99.9,-100.00,ESE,115,8.0,11.0,-999,0.00,,,-99.99,,2013-02-09 06:11:00,
2013-02-09 00:22:00,27.0,-99.9,-100.00,ESE,115,8.0,11.0,-999,0.00,,,-99.99,,2013-02-09 06:22:00,
2013-02-09 00:32:00,27.0,-99.9,-100.00,SE,130,7.0,10.0,-999,0.00,,,0.00,,2013-02-09 06:32:00,
2013-02-09 00:42:00,27.0,-99.9,-100.00,SE,130,7.0,10.0,-999,0.00,,,0.00,,2013-02-09 06:42:00,
2013-02-09 00:52:00,27.0,-99.9,-100.00,SE,130,7.0,10.0,-999,0.00,,,0.00,,2013-02-09 06:52:00,
2013-02-09 01:01:00,27.0,-99.9,-100.00,SE,141,5.0,7.0,-999,0.00,,,0.00,,2013-02-09 07:01:00,
2013-02-09 01:11:00,27.0,-99.9,-100.00,SE,141,5.0,7.0,-999,0.00,,,0.00,,2013-02-09 07:11:00,
2013-02-09 01:22:00,27.0,-99.9,-100.00,SE,141,5.0,7.0,-999,0.00,,,0.00,,2013-02-09 07:22:00,
2013-02-09 01:32:00,27.0,-99.9,-100.00,SE,128,8.0,10.0,-999,0.00,,,0.00,,2013-02-09 07:32:00,
2013-02-09 01:42:00,27.0,-99.9,-100.00,SE,128,8.0,10.0,-999,0.00,,,0.00,,2013-02-09 07:42:00,
2013-02-09 01:52:00,27.0,-99.9,-100.00,SE,128,8.0,10.0,-999,0.00,,,0.00,,2013-02-09 07:52:00,
2013-02-09 02:01:00,27.0,-99.9,-100.00,SE,136,9.0,11.0,-999,0.00,,,0.00,,2013-02-09 08:01:00,
2013-02-09 02:11:00,27.0,-99.9,-100.00,SE,136,9.0,11.0,-999,0.00,,,0.00,,2013-02-09 08:11:00,
2013-02-09 02:22:00,27.0,-99.9,-100.00,SE,136,9.0,11.0,-999,0.00,,,0.00,,2013-02-09 08:22:00,
2013-02-09 02:32:00,27.0,-99.9,-100.00,SE,126,6.0,8.0,-999,0.00,,,0.00,,2013-02-09 08:32:00,
2013-02-09 02:42:00,27.0,-99.9,-100.00,SE,126,6.0,8.0,-999,0.00,,,0.00,,2013-02-09 08:42:00,
2013-02-09 02:52:00,27.0,-99.9,-100.00,SE,126,6.0,8.0,-999,0.00,,,0.00,,2013-02-09 08:52:00,
2013-02-09 03:03:00,27.0,-99.9,-100.00,SE,138,5.0,8.0,-999,0.00,,,0.00,,2013-02-09 09:03:00,
2013-02-09 03:11:00,27.0,-99.9,-100.00,SE,138,5.0,8.0,-999,0.00,,,0.00,,2013-02-09 09:11:00,
2013-02-09 03:22:00,27.0,-99.9,-100.00,SE,138,5.0,8.0,-999,0.00,,,0.00,,2013-02-09 09:22:00,
2013-02-09 03:32:00,27.0,-99.9,-100.00,SE,144,9.0,14.0,-999,0.00,,,0.00,,2013-02-09 09:32:00,
2013-02-09 03:42:00,27.0,-99.9,-100.00,SE,144,9.0,14.0,-999,0.00,,,0.00,,2013-02-09 09:42:00,
2013-02-09 03:52:00,27.0,-99.9,-100.00,SE,144,9.0,14.0,-999,0.00,,,0.00,,2013-02-09 09:52:00,
2013-02-09 04:01:00,27.0,-99.9,-100.00,SSE,152,8.0,11.0,-999,0.00,,,0.00,,2013-02-09 10:01:00,
2013-02-09 04:11:00,27.0,-99.9,-100.00,SSE,152,8.0,11.0,-999,0.00,,,0.00,,2013-02-09 10:11:00,
2013-02-09 04:22:00,27.0,-99.9,-100.00,SSE,152,8.0,11.0,-999,0.00,,,0.00,,2013-02-09 10:22:00,
2013-02-09 04:32:00,27.0,-99.9,-100.00,SE,129,5.0,6.0,-999,0.00,,,0.00,,2013-02-09 10:32:00,
2013-02-09 04:42:00,27.0,-99.9,-100.00,SE,129,5.0,6.0,-999,0.00,,,0.00,,2013-02-09 10:42:00,
2013-02-09 04:52:00,27.0,-99.9,-100.00,SE,129,5.0,6.0,-999,0.00,,,0.00,,2013-02-09 10:52:00,
2013-02-09 05:02:00,27.0,-99.9,-100.00,SSE,155,7.0,11.0,-999,0.00,,,0.00,,2013-02-09 11:02:00,
2013-02-09 05:11:00,27.0,-99.9,-100.00,SSE,155,7.0,11.0,-999,0.00,,,0.00,,2013-02-09 11:11:00,
2013-02-09 05:22:00,27.0,-99.9,-100.00,SSE,155,7.0,11.0,-999,0.00,,,0.00,,2013-02-09 11:22:00,
2013-02-09 05:32:00,27.0,-99.9,-100.00,SSE,151,7.0,12.0,-999,0.00,,,0.00,,2013-02-09 11:32:00,
2013-02-09 05:42:00,27.0,-99.9,-100.00,SSE,151,7.0,12.0,-999,0.00,,,0.00,,2013-02-09 11:42:00,
2013-02-09 05:53:00,27.0,-99.9,-100.00,SSE,151,7.0,12.0,-999,0.00,,,0.00,,2013-02-09 11:53:00,
2013-02-09 06:02:00,27.0,-99.9,-100.00,SSE,149,7.0,12.0,-999,0.00,,,0.00,,2013-02-09 12:02:00,
2013-02-09 06:11:00,27.0,-99.9,-100.00,SSE,149,7.0,12.0,-999,0.00,,,0.00,,2013-02-09 12:11:00,
2013-02-09 06:22:00,27.0,-99.9,-100.00,SSE,149,7.0,12.0,-999,0.00,,,0.00,,2013-02-09 12:22:00,
2013-02-09 06:32:00,28.0,-99.9,-100.00,South,169,8.0,15.0,-999,0.00,,,0.00,,2013-02-09 12:32:00,
2013-02-09 06:42:00,28.0,-99.9,-100.00,South,169,8.0,15.0,-999,0.00,,,0.00,,2013-02-09 12:42:00,
2013-02-09 06:53:00,28.0,-99.9,-100.00,South,169,8.0,15.0,-999,0.00,,,0.00,,2013-02-09 12:53:00,
2013-02-09 07:02:00,28.0,-99.9,-100.00,South,170,7.0,14.0,-999,0.00,,,0.00,,2013-02-09 13:02:00,
2013-02-09 07:11:00,28.0,-99.9,-100.00,South,170,7.0,14.0,-999,0.00,,,0.00,,2013-02-09 13:11:00,
2013-02-09 07:22:00,28.0,-99.9,-100.00,South,170,7.0,14.0,-999,0.00,,,0.00,,2013-02-09 13:22:00,
2013-02-09 07:30:00,28.0,-99.9,-100.00,SSE,152,6.0,9.0,-999,0.00,,,0.00,,2013-02-09 13:30:00,
2013-02-09 07:32:00,28.0,-99.9,-100.00,SE,142,8.0,11.0,-999,0.00,,,0.00,,2013-02-09 13:32:00,
2013-02-09 07:42:00,28.0,-99.9,-100.00,SE,142,8.0,11.0,-999,0.00,,,0.00,,2013-02-09 13:42:00,
2013-02-09 07:52:00,28.0,-99.9,-100.00,SE,142,8.0,11.0,-999,0.00,,,0.00,,2013-02-09 13:52:00,
2013-02-09 08:02:00,28.0,-99.9,-100.00,SSE,152,6.0,9.0,-999,0.00,,,0.00,,2013-02-09 14:02:00,
2013-02-09 08:12:00,28.0,-99.9,-100.00,SSE,152,6.0,9.0,-999,0.00,,,0.00,,2013-02-09 14:12:00,
2013-02-09 08:22:00,28.0,-99.9,-100.00,SSE,152,6.0,9.0,-999,0.00,,,0.00,,2013-02-09 14:22:00,
2013-02-09 08:42:00,29.0,-99.9,-100.00,SE,142,7.0,12.0,-999,0.00,,,0.00,,2013-02-09 14:42:00,
2013-02-09 08:52:00,29.0,-99.9,-100.00,SE,142,7.0,12.0,-999,0.00,,,0.00,,2013-02-09 14:52:00,
2013-02-09 09:00:00,29.0,-99.9,-100.00,SSE,155,10.0,16.0,-999,0.00,,,0.00,,2013-02-09 15:00:00,
2013-02-09 09:02:00,29.0,-99.9,-100.00,SSE,147,9.0,15.0,-999,0.00,,,0.00,,2013-02-09 15:02:00,
2013-02-09 09:12:00,29.0,-99.9,-100.00,SSE,147,9.0,15.0,-999,0.00,,,0.00,,2013-02-09 15:12:00,
2013-02-09 09:22:00,29.0,-99.9,-100.00,SSE,147,9.0,15.0,-999,0.00,,,0.00,,2013-02-09 15:22:00,
2013-02-09 09:32:00,29.0,-99.9,-100.00,SSE,155,10.0,16.0,-999,0.00,,,0.00,,2013-02-09 15:32:00,
2013-02-09 09:42:00,29.0,-99.9,-100.00,SSE,155,10.0,16.0,-999,0.00,,,0.00,,2013-02-09 15:42:00,
2013-02-09 09:52:00,29.0,-99.9,-100.00,SSE,155,10.0,16.0,-999,0.00,,,0.00,,2013-02-09 15:52:00,